Wind_Speed
40 38 36 35 37 36 30 28 23 13 13 19 38 35 27 16 29 28 16 22 16 16 13 14 13 12 9 8 7 5 6 8 9 11 12 13 13 12 11 10 11 11 6 3 2 3 4 5 7
42 42 41 38 41 39 32 25 27 13 32 32 37 40 23 19 32 28 26 21 18 18 17 17 16 14 13 11 10 8 7 7 10 12 14 13 14 13 13 12 11 10 6 4 3 4 5 7 8
39 44 45 45 44 42 34 20 7 19 39 41 39 27 31 33 37 28 25 22 19 18 18 19 20 17 15 13 12 10 8 9 9 10 12 13 13 12 13 12 10 8 7 6 5 7 8 9 8
41 43 49 51 48 40 33 27 19 29 37 36 39 41 31 36 34 24 26 28 23 21 20 19 20 20 18 16 14 12 11 12 12 12 12 12 12 12 12 12 11 10 8 8 9 9 10 11 12
42 43 48 50 49 42 38 34 27 25 29 30 39 39 36 41 37 33 34 31 27 24 24 24 21 18 18 16 15 13 13 12 13 13 12 13 12 12 12 12 12 11 10 10 11 11 12 14 15
44 43 48 47 45 44 40 40 36 31 38 35 39 39 35 46 41 38 40 37 31 28 27 26 25 25 24 21 19 17 16 16 15 15 14 13 14 13 14 15 15 15 13 13 14 16 16 18 19
47 47 47 44 41 41 42 37 42 47 45 41 35 35 39 47 49 45 45 44 37 33 33 30 30 30 30 29 27 25 23 21 21 19 18 18 17 16 16 17 18 18 18 19 18 19 20 21 23
41 44 49 49 45 44 38 26 34 43 54 46 40 42 41 46 52 37 50 44 43 35 35 37 35 34 33 31 29 29 29 27 25 23 23 25 24 24 23 22 24 24 23 22 22 22 22 22 23
41 44 48 46 44 42 39 29 22 37 50 45 53 49 49 53 57 47 28 23 43 34 35 40 40 40 39 36 33 33 32 30 30 31 30 27 27 28 29 30 29 28 26 26 26 26 24 23 23
42 44 41 39 39 37 34 36 28 43 55 41 45 51 47 56 52 50 54 43 41 36 38 41 44 46 44 42 41 39 39 37 37 37 37 33 31 32 32 32 34 33 31 29 29 28 27 27 26
45 41 41 42 40 41 38 43 43 53 52 42 41 43 44 48 54 53 50 34 37 42 41 47 48 49 50 48 45 43 42 42 40 40 39 40 38 36 34 35 34 33 33 33 34 33 32 31 30
47 45 44 44 45 46 50 48 47 48 46 40 44 46 44 51 53 45 39 22 43 43 50 58 57 55 53 49 48 44 43 42 43 44 44 42 41 39 38 37 37 36 36 37 38 38 38 37 38
48 48 49 49 49 49 49 44 44 45 46 44 44 47 46 49 52 38 38 43 34 47 50 73 55 53 54 48 43 42 42 44 46 45 44 43 43 41 41 40 38 39 40 40 41 41 41 42 44
47 47 50 49 50 51 50 46 45 45 48 48 46 47 47 48 46 36 38 43 42 50 49 54 26 57 50 42 41 43 45 46 46 45 46 48 48 46 43 43 44 44 44 45 45 46 46 45 43
46 49 48 52 47 47 50 47 46 49 50 50 48 46 47 47 47 38 38 45 46 56 53 55 68 32 31 49 40 42 44 42 41 39 40 50 56 52 54 54 51 50 52 52 51 51 48 46 47
44 48 49 44 45 46 46 46 47 48 50 50 50 49 47 49 48 44 45 49 51 53 54 55 54 62 42 31 34 47 59 47 40 43 44 54 61 53 55 53 52 53 55 54 55 54 52 47 46
41 41 43 41 41 41 45 46 45 43 46 48 50 49 50 47 50 48 49 54 55 55 56 58 57 51 45 54 44 59 45 31 39 46 44 57 37 25 42 47 35 47 55 58 57 55 52 52 50
37 36 37 34 29 32 43 46 39 40 41 45 47 48 48 49 47 51 55 59 56 57 61 63 63 59 54 59 50 26 28 38 46 44 43 46 42 37 32 36 39 55 43 22 34 50 51 52 56
29 28 30 29 26 29 32 36 32 33 35 38 44 46 49 50 49 51 56 60 59 58 60 66 66 66 61 59 60 58 56 61 51 57 58 46 26 54 51 44 42 44 56 47 52 57 60 58 62
30 29 22 23 18 31 23 29 27 26 29 31 34 38 40 44 44 46 50 57 57 61 61 65 66 61 59 54 66 60 47 60 55 56 63 64 65 65 59 58 58 59 66 66 55 57 57 56 56
34 36 25 21 31 28 26 32 22 19 26 31 30 33 34 38 41 44 48 51 54 60 62 64 63 60 57 62 61 60 64 63 58 66 65 61 65 66 63 62 64 63 63 67 62 55 51 46 48
33 35 28 28 26 22 20 17 16 13 20 26 29 29 28 28 31 40 45 46 50 47 53 61 53 58 52 48 55 57 62 61 67 63 68 67 66 69 68 69 62 69 60 56 62 53 43 42 41
29 25 33 30 25 28 28 24 14 16 19 25 22 21 21 21 17 14 21 31 19 23 26 39 53 59 53 59 60 66 63 70 70 73 68 64 67 77 63 66 65 48 39 47 46 41 44 46 46
28 28 22 24 24 34 32 26 15 20 17 17 22 17 17 16 17 13 19 24 20 16 21 19 23 38 48 48 50 46 56 53 46 41 48 45 36 45 49 55 43 39 38 40 43 46 49 49 51
32 30 27 27 30 31 22 23 19 28 27 15 19 23 15 20 20 20 28 20 18 21 15 16 25 32 42 40 23 21 27 30 30 27 30 30 33 30 32 33 36 39 43 43 48 51 51 53 53
32 35 31 26 24 22 18 23 19 28 28 27 26 19 21 23 21 27 25 27 27 16 16 15 20 21 26 28 25 24 24 25 27 28 31 35 36 36 40 41 42 46 48 49 52 52 54 56 56
30 35 29 27 27 27 22 23 31 27 37 28 27 26 28 20 28 21 21 24 22 16 17 20 20 25 28 29 28 28 29 30 33 35 38 41 42 43 44 44 47 51 54 55 55 55 57 59 61
35 23 28 35 25 23 26 21 27 24 26 31 34 25 29 31 28 21 23 24 23 24 24 25 28 25 30 32 35 34 38 38 38 42 44 45 43 44 47 49 51 53 53 55 57 58 60 63 64
42 38 31 29 36 28 28 29 42 35 35 24 26 32 35 34 34 28 25 25 29 31 32 34 34 33 32 36 38 40 43 44 45 47 49 48 47 48 50 51 53 55 58 58 58 58 61 62 63
29 38 33 33 29 34 29 36 28 35 23 26 30 27 29 22 31 36 33 32 35 37 39 40 39 40 41 41 42 45 47 49 50 50 48 46 48 49 50 52 54 56 55 55 54 55 56 58 56
Wind_Direction
238 238 235 228 228 227 217 207 176 218 270 233 238 237 213 224 211 222 252 246 239 247 243 234 218 223 224 218 216 226 253 255 248 245 244 249 252 253 254 256 259 273 287 296 357 11 10 12 9
238 240 240 236 230 225 219 214 201 231 258 244 243 242 237 239 247 220 230 242 244 252 252 247 237 226 219 219 220 217 222 243 254 250 249 246 247 252 257 253 260 275 274 281 303 321 330 339 348
238 237 239 239 235 229 218 197 267 257 252 256 252 245 235 228 228 226 240 244 246 251 248 254 250 239 227 222 223 223 226 235 239 250 258 261 262 261 266 267 270 270 269 268 292 305 316 323 336
235 237 237 239 237 232 226 201 211 236 239 246 253 251 252 245 244 237 246 244 247 244 243 244 248 247 234 227 228 227 238 249 255 257 255 253 255 263 267 265 263 264 266 277 295 303 312 319 321
232 236 242 240 237 236 230 216 222 251 243 241 246 251 251 252 247 247 243 245 241 242 236 238 244 246 240 240 245 244 246 248 257 264 266 268 265 264 266 269 270 268 275 289 298 302 304 305 308
232 232 239 242 241 237 236 231 214 249 235 243 247 249 255 257 253 248 247 244 237 238 238 236 238 246 247 251 256 261 261 267 268 271 270 268 268 269 270 275 278 279 281 284 291 297 301 305 305
237 235 239 240 239 237 235 230 239 234 245 241 248 246 245 253 251 247 247 244 236 232 236 238 243 245 249 254 260 261 265 267 270 269 268 262 257 261 267 271 275 278 283 288 292 293 298 301 301
240 238 239 238 236 237 236 246 250 245 238 240 244 241 236 247 250 257 243 240 241 233 237 243 249 252 252 250 254 259 261 264 265 263 260 263 262 262 266 271 271 274 279 283 286 290 295 296 299
238 239 240 240 242 240 235 220 232 242 249 238 240 241 239 244 247 239 255 189 237 246 243 246 248 253 252 254 256 259 260 261 261 260 258 263 268 271 273 272 276 280 282 285 287 289 290 293 297
239 242 243 242 240 239 235 229 221 242 246 246 247 250 248 254 257 258 261 254 263 258 255 252 253 251 250 251 254 257 258 260 263 263 264 267 271 271 272 274 276 279 280 279 280 284 287 291 293
236 238 238 239 240 236 232 224 219 234 246 247 247 249 252 252 258 264 272 267 255 263 265 258 251 250 249 249 250 251 255 259 260 261 266 271 274 270 271 272 272 271 274 275 277 280 280 281 283
237 235 237 238 237 235 239 238 241 246 250 249 250 246 243 250 255 261 266 266 258 266 268 264 257 252 251 250 251 252 255 259 262 265 268 271 269 269 274 276 275 273 275 276 279 280 281 277 277
239 237 236 236 238 242 243 244 243 243 248 246 246 252 252 253 257 261 262 264 251 257 249 260 239 238 247 246 251 256 258 260 261 264 267 269 268 270 273 274 270 271 274 276 278 277 277 277 281
239 239 239 240 237 240 243 241 244 245 247 246 244 247 251 255 257 253 255 260 254 258 251 238 254 225 222 235 244 251 254 255 260 264 266 268 267 266 268 271 273 273 276 278 277 277 278 280 282
238 239 239 240 243 242 245 243 242 244 246 248 247 246 250 252 255 248 248 252 250 249 245 257 256 144 223 236 237 251 258 260 264 269 269 268 265 267 268 266 267 271 273 274 275 275 273 275 274
241 241 242 242 243 243 245 241 242 243 245 247 247 247 245 250 251 251 250 249 250 254 259 262 260 267 297 245 256 259 257 258 268 273 274 272 259 262 262 263 271 275 275 274 274 270 273 274 270
241 243 242 241 242 244 245 244 242 245 247 247 248 247 248 243 251 252 255 254 252 255 257 260 263 263 259 263 277 264 235 257 285 271 269 265 243 264 276 256 278 275 268 269 264 264 268 268 266
242 241 242 242 237 238 245 245 244 245 247 250 252 251 250 248 244 249 251 255 256 257 259 258 260 259 257 260 261 219 257 277 279 267 266 254 266 258 292 292 296 259 261 238 237 263 266 271 270
241 242 243 241 218 255 258 246 246 243 246 248 252 251 252 251 247 243 248 252 255 257 259 266 265 263 260 256 259 264 267 274 267 274 273 253 234 296 289 291 280 273 282 277 277 279 278 268 268
228 223 217 253 224 222 239 255 250 246 247 248 252 258 258 256 253 249 246 249 254 256 256 258 261 259 264 259 260 267 261 259 267 266 272 274 277 281 279 284 281 274 278 272 282 273 266 269 270
222 216 206 204 219 211 232 249 255 250 245 243 243 252 261 265 261 258 258 252 251 255 258 256 257 261 268 251 257 264 271 262 259 264 266 267 276 278 279 279 280 277 269 269 274 278 279 282 285
224 216 207 216 206 229 260 262 280 270 263 250 246 250 257 260 255 252 249 250 250 255 258 257 261 263 258 278 258 261 272 270 265 266 256 267 271 271 274 276 273 276 274 274 276 275 276 280 283
220 224 221 211 219 221 215 231 192 221 232 264 253 248 253 254 243 229 225 250 252 257 255 253 256 252 260 261 269 263 264 266 269 260 263 272 269 276 275 275 271 278 275 273 278 280 283 276 278
213 198 221 228 224 234 231 223 198 231 244 264 272 249 239 205 215 230 227 241 260 278 258 250 267 260 258 265 263 269 266 264 266 258 259 259 267 268 267 270 268 266 269 274 277 278 277 280 282
204 199 209 218 217 232 233 226 204 231 226 183 222 255 238 216 221 208 231 254 266 257 276 263 265 258 256 258 274 282 283 272 279 270 271 275 273 279 275 267 269 274 276 277 278 280 283 281 283
210 209 203 215 224 234 238 226 215 244 254 235 216 230 238 247 233 224 246 244 247 239 249 248 266 262 262 261 260 264 267 277 269 274 275 273 276 279 278 280 277 276 275 276 277 282 285 286 287
207 219 204 203 212 224 210 214 233 209 231 246 247 250 246 236 234 238 233 241 256 258 245 255 267 263 267 270 270 268 270 276 279 279 284 281 279 278 279 274 277 280 282 284 286 287 287 288 288
208 219 217 203 222 229 207 209 230 216 247 253 259 246 243 247 244 233 228 235 249 254 257 262 263 261 255 258 264 269 273 275 277 279 280 280 278 279 280 280 281 282 283 285 285 287 288 288 288
201 203 210 218 212 230 217 207 212 215 215 194 254 248 241 252 257 249 238 242 250 254 259 263 266 266 261 259 262 264 266 269 274 278 281 279 275 276 282 285 289 287 285 285 285 285 285 286 285
212 202 206 209 203 217 238 232 231 221 207 205 219 234 255 243 254 260 262 255 255 257 259 262 264 264 266 268 269 269 273 277 279 280 280 279 282 286 286 285 283 282 284 285 284 285 288 287 288
Height
5872 5874 5876 5877 5880 5881 5886 5891 5897 5898 5899 5897 5893 5898 5902 5905 5899 5898 5896 5900 5907 5907 5908 5909 5909 5910 5910 5910 5911 5912 5913 5914 5914 5916 5915 5916 5916 5916 5916 5916 5917 5918 5917 5916 5915 5916 5916 5914 5913
5865 5868 5870 5871 5871 5875 5883 5890 5893 5899 5890 5888 5892 5898 5903 5899 5892 5898 5898 5902 5905 5905 5906 5907 5908 5908 5908 5909 5909 5910 5912 5913 5914 5914 5914 5914 5914 5915 5915 5914 5915 5915 5915 5914 5914 5914 5914 5913 5912
5859 5861 5862 5863 5864 5869 5880 5886 5897 5898 5886 5882 5889 5894 5894 5888 5889 5893 5896 5899 5902 5903 5904 5905 5906 5906 5906 5907 5908 5908 5909 5911 5912 5913 5913 5913 5913 5912 5913 5913 5913 5913 5913 5913 5913 5913 5913 5912 5911
5850 5854 5854 5853 5858 5867 5877 5882 5881 5882 5878 5882 5884 5887 5891 5889 5890 5897 5895 5897 5900 5901 5901 5902 5904 5904 5905 5905 5905 5906 5907 5909 5909 5910 5911 5911 5911 5911 5912 5912 5911 5911 5912 5912 5912 5911 5911 5910 5910
5841 5845 5846 5850 5853 5862 5869 5878 5877 5875 5874 5877 5880 5882 5885 5881 5887 5891 5892 5893 5897 5897 5898 5900 5901 5902 5903 5903 5904 5905 5905 5906 5907 5908 5909 5909 5909 5910 5911 5912 5911 5910 5909 5910 5910 5910 5909 5908 5908
5833 5836 5837 5844 5850 5856 5862 5867 5867 5864 5867 5873 5874 5879 5883 5875 5881 5884 5884 5885 5889 5893 5895 5896 5897 5898 5899 5899 5901 5902 5903 5903 5904 5905 5907 5907 5908 5908 5908 5909 5909 5909 5907 5907 5907 5908 5907 5906 5905
5827 5830 5832 5838 5845 5847 5854 5859 5859 5860 5861 5867 5869 5875 5872 5870 5870 5875 5878 5879 5882 5885 5888 5891 5893 5894 5895 5896 5897 5898 5899 5900 5900 5901 5902 5904 5904 5905 5905 5905 5906 5906 5905 5905 5905 5905 5904 5904 5903
5820 5822 5824 5830 5836 5840 5846 5850 5852 5850 5852 5861 5863 5865 5869 5864 5863 5867 5862 5870 5876 5880 5885 5888 5890 5891 5892 5891 5892 5893 5895 5896 5896 5897 5897 5899 5901 5901 5902 5902 5901 5901 5902 5901 5901 5901 5901 5901 5901
5812 5814 5817 5824 5829 5835 5841 5844 5851 5845 5841 5851 5853 5859 5861 5856 5854 5855 5823 5834 5869 5874 5882 5884 5886 5886 5887 5887 5887 5888 5889 5890 5891 5892 5893 5894 5896 5897 5897 5897 5896 5897 5897 5896 5896 5897 5897 5896 5896
5804 5807 5815 5820 5821 5826 5831 5836 5841 5837 5831 5843 5845 5848 5853 5845 5850 5857 5856 5869 5867 5867 5874 5880 5880 5879 5879 5880 5881 5882 5882 5883 5885 5886 5888 5890 5892 5892 5892 5891 5891 5891 5891 5891 5891 5891 5891 5891 5891
5797 5803 5806 5810 5814 5816 5819 5822 5823 5824 5826 5836 5839 5843 5844 5844 5842 5843 5845 5860 5862 5860 5863 5864 5868 5868 5870 5872 5872 5874 5877 5879 5879 5881 5883 5884 5885 5885 5885 5885 5885 5884 5885 5885 5885 5885 5885 5885 5885
5789 5794 5797 5802 5804 5805 5806 5812 5818 5819 5823 5829 5828 5832 5836 5834 5836 5842 5848 5857 5852 5856 5852 5843 5855 5854 5859 5866 5865 5867 5870 5872 5874 5876 5877 5877 5877 5878 5878 5879 5879 5878 5879 5878 5878 5877 5878 5879 5878
5780 5785 5787 5791 5794 5797 5800 5806 5810 5814 5815 5819 5821 5824 5827 5829 5831 5840 5841 5843 5851 5849 5852 5823 5825 5839 5840 5852 5857 5861 5862 5864 5866 5868 5870 5871 5871 5871 5871 5871 5870 5871 5870 5870 5869 5869 5870 5871 5871
5771 5775 5779 5783 5786 5789 5792 5798 5801 5806 5805 5808 5813 5817 5818 5821 5828 5837 5837 5833 5839 5837 5837 5808 5810 5798 5818 5839 5849 5849 5849 5851 5856 5859 5862 5864 5864 5864 5865 5863 5862 5863 5862 5862 5861 5860 5861 5865 5867
5762 5765 5769 5771 5779 5782 5783 5789 5793 5795 5796 5798 5805 5810 5811 5813 5817 5827 5830 5825 5829 5823 5830 5830 5818 5759 5823 5832 5837 5841 5843 5848 5852 5855 5856 5852 5852 5855 5854 5851 5851 5852 5852 5851 5852 5853 5855 5859 5857
5754 5756 5760 5767 5768 5773 5774 5781 5784 5786 5787 5791 5794 5798 5804 5805 5810 5816 5818 5815 5818 5819 5822 5821 5825 5815 5815 5825 5832 5831 5833 5844 5849 5848 5845 5843 5840 5842 5843 5841 5845 5845 5843 5842 5842 5841 5845 5852 5850
5744 5749 5752 5757 5761 5764 5766 5770 5776 5778 5779 5782 5784 5789 5792 5799 5801 5807 5807 5804 5807 5813 5812 5811 5813 5821 5829 5818 5820 5801 5824 5840 5840 5835 5841 5825 5827 5830 5827 5824 5835 5834 5828 5828 5828 5831 5836 5841 5842
5737 5742 5746 5749 5755 5755 5757 5760 5766 5770 5772 5774 5774 5778 5782 5787 5795 5796 5796 5791 5797 5799 5799 5801 5808 5814 5819 5817 5821 5780 5819 5828 5831 5828 5831 5831 5828 5807 5821 5825 5829 5813 5821 5803 5818 5817 5822 5828 5831
5733 5736 5740 5744 5748 5751 5749 5753 5757 5760 5763 5764 5764 5766 5770 5776 5782 5787 5787 5782 5786 5790 5791 5782 5789 5793 5802 5809 5805 5807 5815 5817 5822 5815 5815 5818 5753 5793 5817 5819 5819 5803 5819 5814 5813 5814 5815 5814 5815
5724 5728 5736 5743 5745 5745 5746 5745 5750 5752 5754 5756 5757 5757 5760 5763 5770 5775 5777 5773 5777 5778 5784 5783 5780 5781 5789 5793 5791 5798 5813 5810 5811 5811 5800 5797 5795 5793 5805 5810 5813 5810 5809 5807 5802 5802 5803 5804 5804
5715 5721 5729 5736 5739 5740 5741 5740 5744 5748 5749 5749 5750 5750 5751 5753 5758 5763 5763 5766 5769 5769 5773 5776 5778 5779 5779 5787 5792 5793 5793 5799 5803 5807 5799 5796 5797 5796 5799 5798 5800 5801 5798 5795 5793 5793 5795 5795 5796
5708 5716 5722 5728 5730 5735 5736 5738 5742 5743 5744 5745 5745 5744 5745 5746 5748 5752 5754 5754 5759 5764 5767 5766 5770 5774 5778 5776 5781 5785 5784 5785 5795 5794 5796 5791 5786 5787 5787 5789 5790 5790 5787 5785 5783 5782 5783 5785 5785
5704 5712 5715 5720 5725 5728 5729 5732 5737 5739 5739 5739 5741 5739 5740 5740 5741 5743 5748 5748 5755 5758 5762 5763 5762 5766 5766 5769 5771 5771 5771 5770 5777 5782 5782 5780 5778 5778 5776 5777 5778 5775 5772 5773 5772 5772 5771 5772 5773
5700 5706 5711 5714 5718 5717 5722 5728 5733 5736 5737 5736 5734 5737 5738 5738 5740 5743 5741 5746 5750 5752 5753 5755 5755 5758 5758 5763 5761 5763 5764 5764 5762 5763 5763 5764 5766 5765 5764 5766 5765 5763 5762 5762 5763 5762 5763 5763 5763
5690 5698 5704 5708 5710 5711 5719 5722 5728 5728 5731 5732 5732 5731 5735 5734 5735 5737 5735 5741 5746 5746 5748 5751 5751 5752 5753 5756 5753 5751 5753 5752 5756 5756 5757 5758 5758 5758 5758 5758 5755 5754 5752 5752 5753 5753 5753 5754 5752
5682 5689 5695 5701 5706 5712 5716 5716 5724 5723 5724 5724 5729 5730 5729 5730 5730 5734 5733 5734 5738 5742 5743 5745 5745 5745 5747 5748 5747 5747 5747 5749 5750 5751 5751 5749 5748 5748 5751 5748 5747 5746 5744 5743 5744 5743 5743 5741 5737
5678 5681 5692 5698 5703 5702 5709 5716 5713 5717 5716 5720 5725 5728 5724 5728 5724 5729 5732 5731 5730 5736 5739 5739 5741 5741 5742 5743 5741 5742 5743 5743 5743 5742 5742 5741 5740 5739 5738 5738 5737 5736 5735 5733 5732 5731 5728 5725 5724
5672 5682 5686 5688 5694 5698 5704 5710 5705 5710 5713 5715 5714 5720 5721 5720 5720 5724 5725 5726 5728 5730 5732 5734 5735 5735 5735 5735 5737 5737 5737 5736 5736 5736 5734 5734 5731 5730 5730 5729 5728 5728 5724 5721 5719 5715 5712 5710 5707
5665 5669 5679 5685 5689 5692 5696 5695 5699 5701 5702 5705 5709 5710 5712 5714 5714 5719 5721 5723 5724 5726 5726 5727 5728 5728 5729 5730 5729 5729 5729 5728 5727 5727 5725 5723 5721 5721 5720 5717 5714 5713 5712 5708 5705 5702 5700 5697 5694
5659 5666 5671 5675 5681 5689 5691 5692 5693 5697 5697 5701 5701 5700 5703 5705 5709 5710 5713 5715 5716 5718 5719 5719 5720 5720 5720 5721 5721 5721 5720 5718 5717 5715 5713 5713 5711 5708 5708 5707 5706 5704 5700 5695 5691 5689 5685 5684 5679